DM7LA-WX Weather Reports


Display with metric or nautical units.
time (UTC)temp
F
wind
direction
speed
MPH
gust
MPH
rain 1hr
in
rain 24hr
in
rain mn
in
humidity
%
barometer
mb
20260904135802 63 292 0.0 0.0 0.01 2.99 1.67 94 1000.6
20260904125802 63 247 0.0 0.0 0.01 3.01 1.66 95 1000.3
20260904115801 62 225 0.0 0.0 0.01 3.00 1.65 95 1000.2
20260904105802 62 247 0.0 0.0 0.09 2.98 1.64 95 1000.4
20260904095804 62 270 0.0 0.0 0.61 2.89 1.54 95 1000.5
20260904085802 62 315 0.0 0.0 0.34 2.27 0.93 94 999.7
20260904075801 62 270 0.0 0.0 0.27 1.93 0.59 94 1000.5
20260904065801 63 270 0.0 0.0 0.12 1.66 0.31 93 1001.6
20260904055801 64 270 0.0 0.0 0.12 1.54 0.18 92 1002.5
20260904045802 65 270 0.0 0.0 0.03 1.42 0.05 91 1002.8
20260904035801 65 247 0.0 0.0 0.00 1.39 0.02 92 1003.3
20260904025802 64 225 0.0 0.0 0.00 1.39 0.02 93 1004.5
20260904015802 64 202 0.0 0.0 0.02 1.39 0.02 92 1005.7
20260904005801 64 225 0.0 0.0 0.00 1.37 0.00 87 1006.8
20260903235801 64 202 0.0 0.0 0.00 1.37 0.01 84 1007.8
20260903225801 64 225 0.0 0.0 0.00 1.37 0.01 84 1008.4
20260903215801 64 292 0.0 0.0 0.00 1.37 0.01 86 1008.5
20260903205801 65 292 0.0 0.0 0.00 1.37 0.01 82 1008.9
20260903195802 65 315 0.0 0.0 0.00 1.37 0.01 79 1009.2
20260903185801 65 247 0.0 0.0 0.00 1.37 0.01 82 1009.2
20260903175802 66 247 0.0 0.0 0.00 1.37 0.01 81 1009.2
20260903165802 66 292 0.0 0.0 0.00 1.37 0.01 82 1008.7
20260903155801 65 247 0.0 0.0 0.00 1.37 0.01 86 1008.5
20260903145802 67 292 0.0 0.0 0.00 1.37 0.01 82 1008.1